Simultaneous Nadir Overpasses (SNOs) Predictions

Prediction of SNOs between GOES-17 and METOP-C Satellite Orbit:

Table of predicted SNOs for the next 14.0 days since TLE Epoch: 5/15/2021
Index Date Time (GOES-17) GOES-17 Lat,Lon METOP-C Lat,Lon Distance(km) Time Diff (sec)
1 05/15/2021 18:44:48 0.05,-137.20 0.33,-138.54 152.66 80
2 05/16/2021 18:26:49 0.05,-137.19 -0.78,-133.55 416.15 80
3 05/18/2021 06:43:10 -0.04,-137.19 -0.23,-138.15 109.18 80
4 05/19/2021 06:25:11 -0.04,-137.18 0.89,-133.16 459.30 80
5 05/20/2021 18:41:21 0.03,-137.17 0.14,-137.71 61.14 80
6 05/23/2021 06:39:42 -0.03,-137.15 -0.09,-137.31 19.16 80
7 05/25/2021 18:40:33 0.03,-137.11 -0.01,-136.87 26.99 80
8 05/28/2021 06:38:55 -0.02,-137.07 0.12,-136.49 66.23 80
